Location: Amarillo Post Office Jordan Station
(35.1907°N, 101.9342°W)
Time: 16:49:01
(UTC+00:00)

ERS-2 - Pass Details

Date: 24 January 2021
Orbit: 492 x 497 km, 98.6° (Epoch: 01 March)

Event Time Altitude Azimuth Distance (km) Brightness Sun altitude
Rises 12:38:06 0° 178° (S) 2,568 5.9 -15.2°
Reaches altitude 10° 12:40:13 10° 183° (S) 1,689 4.9 -14.8°
Maximum altitude 12:43:44 48° 259° (W) 654 2.3 -14.1°
Enters shadow 12:47:12 11° 335° (NNW) 1,667 4.4 -13.4°
